Henderson, KY

2:50 AM CDT on August 26, 2019 (GMT -0500)
Henderson City-County

Weather History for KEHR - June, 2019

Change the Weather History Date:

Thursday, June 6, 2019

  Actual Average Record
Temperature  
Mean Temperature 75 °F -  
Max Temperature 82 °F 82 °F 97 °F (1932)
Min Temperature 68 °F 61 °F 49 °F (1993)
Cooling Degree Days 10    
Growing Degree Days 25 (Base 50)    
Moisture  
Dew Point 68 °F    
Average Humidity 81    
Maximum Humidity 100    
Minimum Humidity 58    
Precipitation  
Precipitation 0.00 in - - ()
Sea Level Pressure  
Sea Level Pressure 29.81 in    
Wind  
Wind Speed 3 mph (NE)    
Max Wind Speed 8 mph    
Max Gust Speed -    
Visibility 9 miles    
Events Rain    
Averages and records for this station are not official NWS values.
T = Trace of Precipitation, MM = Missing Value Source: NWS Daily Summary

Daily Weather History Graph

Daily Weather History Graph

Search for Another Location

Airport or City:

Astronomy

Jun. 06, 2019 Rise Set
Actual Time 5:28 AM CDT 8:10 PM CDT
Civil Twilight 4:57 AM CDT 8:41 PM CDT
Nautical Twilight 4:19 AM CDT 9:19 PM CDT
Astronomical Twilight 3:35 AM CDT 10:03 PM CDT
Moon 8:36 AM CDT (6/6) 11:28 PM CDT (6/6)
Length of Visible Light 15h 43m
Length of Day
14h 41m
Waxing Crescent, 14% of the Moon is Illuminated
Jun 6
Waxing Crescent
Jun 10
First Quarter
Jun 17
Full
Jun 25
Last Quarter
Jul 2
New

Hourly Weather History & Observations

Time (CDT) Temp. Heat Index Dew Point Humidity Pressure Visibility Wind Dir Wind Speed Gust Speed Precip Events Conditions
12:56 AM 71.1 °F - 68.0 °F 90% 29.81 in 10.0 mi SSE 4.6 mph - N/A   Clear
1:56 AM 71.1 °F - 68.0 °F 90% 29.80 in 10.0 mi East 3.5 mph - N/A   Clear
2:56 AM 70.0 °F - 68.0 °F 93% 29.80 in 10.0 mi East 3.5 mph - 0.00 in   Clear
3:56 AM 69.1 °F - 68.0 °F 96% 29.81 in 6.0 mi NNW 3.5 mph - N/A   Partly Cloudy
4:56 AM 69.1 °F - 68.0 °F 96% 29.80 in 4.0 mi Calm Calm - N/A   Scattered Clouds
5:30 AM 68.0 °F - 68.0 °F 100% 29.82 in 2.5 mi Calm Calm - N/A   Clear
5:48 AM 68.0 °F - 68.0 °F 100% 29.83 in 4.0 mi North 4.6 mph - N/A   Clear
5:56 AM 69.1 °F - 68.0 °F 96% 29.82 in 5.0 mi North 4.6 mph - N/A   Clear
6:56 AM 71.1 °F - 69.1 °F 93% 29.83 in 9.0 mi Calm Calm - N/A   Clear
7:56 AM 73.9 °F - 69.1 °F 85% 29.83 in 10.0 mi Calm Calm - N/A   Clear
8:56 AM 75.9 °F - 69.1 °F 79% 29.83 in 10.0 mi Calm Calm - N/A   Clear
9:56 AM 78.1 °F - 66.9 °F 68% 29.84 in 10.0 mi Calm Calm - N/A   Clear
10:56 AM 79.0 °F - 64.9 °F 62% 29.84 in 10.0 mi North 3.5 mph - N/A   Clear
11:56 AM 82.9 °F 85.4 °F 66.9 °F 58% 29.83 in 10.0 mi Variable 3.5 mph - N/A   Clear
12:56 PM 82.0 °F 84.5 °F 66.9 °F 60% 29.83 in 10.0 mi Calm Calm - N/A   Clear
1:56 PM 82.9 °F 85.8 °F 68.0 °F 60% 29.81 in 10.0 mi WNW 3.5 mph - N/A   Clear
2:56 PM 82.0 °F 84.5 °F 66.9 °F 60% 29.80 in 10.0 mi West 6.9 mph - N/A   Clear
3:56 PM 82.0 °F 84.1 °F 66.0 °F 58% 29.79 in 10.0 mi NW 5.8 mph - N/A   Clear
4:56 PM 82.0 °F 84.1 °F 66.0 °F 58% 29.78 in 10.0 mi NW 4.6 mph - N/A   Scattered Clouds
5:56 PM 81.0 °F 83.8 °F 68.0 °F 65% 29.78 in 10.0 mi Calm Calm - N/A   Partly Cloudy
6:56 PM 77.0 °F - 72.0 °F 84% 29.78 in 10.0 mi South 8.1 mph - N/A   Clear
7:56 PM 75.9 °F - 71.1 °F 85% 29.79 in 10.0 mi South 6.9 mph - N/A   Clear
8:56 PM 75.0 °F - 69.1 °F 82% 29.80 in 10.0 mi ESE 4.6 mph - N/A   Clear
9:56 PM 73.0 °F - 70.0 °F 90% 29.81 in 10.0 mi East 4.6 mph - N/A   Clear
10:56 PM 72.0 °F - 70.0 °F 93% 29.80 in 10.0 mi East 4.6 mph - 0.00 in Rain Light Rain
11:56 PM 72.0 °F - 71.1 °F 97% 29.79 in 9.0 mi ESE 3.5 mph - 0.00 in   Partly Cloudy